EW1728 Weather Reports


time (UTC)temp
C
wind
direction
speed
KPH
gust
KPH
rain 1hr
cm
rain 24hr
cm
rain mn
cm
humidity
%
barometer
mb
20260505195756 27 129 1.6 6.4 0.00 0.00 0.00 50 1014.3
20260505195253 27 169 1.6 6.4 0.00 0.00 0.00 49 1014.4
20260505194744 27 136 1.6 6.4 0.00 0.00 0.00 49 1014.6
20260505194231 28 128 1.6 3.2 0.00 0.00 0.00 48 1014.7
20260505193734 28 210 1.6 4.8 0.00 0.00 0.00 47 1015.0
20260505193730 28 260 1.6 4.8 0.00 0.00 0.00 46 1014.8
20260505192725 28 120 1.6 6.4 0.00 0.00 0.00 48 1014.8
20260505192222 28 147 1.6 6.4 0.00 0.00 0.00 45 1015.0
20260505191725 28 141 1.6 3.2 0.00 0.00 0.00 46 1015.0
20260505191721 28 184 1.6 3.2 0.00 0.00 0.00 45 1015.1
20260505190717 28 224 1.6 4.8 0.00 0.00 0.00 44 1015.2
20260505190216 27 186 1.6 4.8 0.00 0.00 0.00 47 1015.4
20260505185713 27 134 1.6 4.8 0.00 0.00 0.00 47 1015.4
20260505185206 27 153 1.6 4.8 0.00 0.00 0.00 47 1015.4
20260505184658 27 155 1.6 3.2 0.00 0.00 0.00 49 1015.5
20260505184155 27 127 1.6 3.2 0.00 0.00 0.00 50 1015.6
20260505183640 27 132 1.6 8.0 0.00 0.00 0.00 49 1015.6
20260505183125 27 95 3.2 8.0 0.00 0.00 0.00 50 1015.7
20260505183056 26 139 3.2 8.0 0.00 0.00 0.00 50 1015.7
20260505182058 27 156 1.6 4.8 0.00 0.00 0.00 47 1015.7
20260505182054 27 115 1.6 8.0 0.00 0.00 0.00 48 1015.8
20260505181535 27 222 1.6 4.8 0.00 0.00 0.00 50 1015.9
20260505180531 27 148 1.6 4.8 0.00 0.00 0.00 50 1016.0
20260505180029 27 162 1.6 4.8 0.00 0.00 0.00 51 1015.9
20260505175528 27 169 1.6 4.8 0.00 0.00 0.00 53 1015.9
20260505175029 27 111 1.6 4.8 0.00 0.00 0.00 51 1015.8
20260505174526 27 160 1.6 4.8 0.00 0.00 0.00 53 1015.9
20260505174026 27 165 1.6 4.8 0.00 0.00 0.00 52 1016.0
20260505173526 27 170 1.6 4.8 0.00 0.00 0.00 53 1015.9
20260505173027 27 195 1.6 6.4 0.00 0.00 0.00 51 1015.9
20260505172519 27 167 1.6 6.4 0.00 0.00 0.00 52 1016.0
20260505172019 26 107 3.2 6.4 0.00 0.00 0.00 53 1016.0
20260505171518 26 107 3.2 8.0 0.00 0.00 0.00 55 1016.1
20260505171016 26 104 1.6 8.0 0.00 0.00 0.00 53 1016.0
20260505170517 27 167 1.6 8.0 0.00 0.00 0.00 52 1016.1
20260505170016 27 285 1.6 4.8 0.00 0.00 0.00 55 1016.2
20260505170012 26 255 1.6 4.8 0.00 0.00 0.00 53 1016.3
20260505165010 26 201 1.6 6.4 0.00 0.00 0.00 55 1016.3
20260505164502 26 135 1.6 6.4 0.00 0.00 0.00 54 1016.4
20260505164002 26 171 1.6 6.4 0.00 0.00 0.00 56 1016.4
20260505163502 26 199 1.6 8.0 0.00 0.00 0.00 57 1016.3
20260505163002 26 154 1.6 8.0 0.00 0.00 0.00 56 1016.3
20260505162450 25 40 1.6 4.8 0.00 0.00 0.00 62 1016.4
20260505161938 25 59 1.6 6.4 0.00 0.00 0.00 62 1016.4
20260505161438 25 145 1.6 6.4 0.00 0.00 0.00 62 1016.4
20260505160936 25 135 0.0 3.2 0.00 0.00 0.00 62 1016.5
20260505160436 25 335 1.6 3.2 0.00 0.00 0.00 61 1016.6
20260505152908 22 145 1.6 3.2 0.00 0.00 0.00 67 1016.9
20260505152408 22 100 1.6 3.2 0.00 0.00 0.00 68 1016.9
20260505151908 22 103 0.0 3.2 0.00 0.00 0.00 69 1016.9
20260505151404 22 142 0.0 3.2 0.00 0.00 0.00 69 1017.0
20260505150900 22 164 0.0 3.2 0.00 0.00 0.00 70 1017.1
20260505150344 21 143 0.0 3.2 0.00 0.00 0.00 71 1017.1
20260505125026 15 242 0.0 1.6 0.00 0.00 0.00 87 1016.7
20260505124526 15 242 0.0 1.6 0.00 0.00 0.00 88 1016.6
20260505124025 15 243 0.0 1.6 0.00 0.00 0.00 88 1016.7
20260505123526 15 243 0.0 0.0 0.00 0.00 0.00 87 1016.6
20260505123026 14 243 0.0 1.6 0.00 0.00 0.00 88 1016.7
20260505122521 14 243 0.0 1.6 0.00 0.00 0.00 89 1016.6
20260505122022 14 240 0.0 1.6 0.00 0.00 0.00 89 1016.6
20260505121520 13 111 0.0 1.6 0.00 0.00 0.00 89 1016.5
20260505121016 13 240 0.0 1.6 0.00 0.00 0.00 89 1016.5
20260505120941 13 240 0.0 1.6 0.00 0.00 0.00 89 1016.5
20260505115938 13 191 0.0 0.0 0.00 0.00 0.00 89 1016.5
20260505115435 13 150 0.0 0.0 0.00 0.00 0.00 89 1016.4
20260505114932 13 150 0.0 0.0 0.00 0.00 0.00 90 1016.4
20260505114435 12 150 0.0 0.0 0.00 0.00 0.00 89 1016.3
20260505114431 12 150 0.0 0.0 0.00 0.00 0.00 89 1016.4
20260505113430 12 150 0.0 0.0 0.00 0.00 0.00 90 1016.2
20260505112929 12 150 0.0 0.0 0.00 0.00 0.00 90 1016.2
20260505112430 12 150 0.0 0.0 0.00 0.00 0.00 90 1016.2
20260505111930 12 150 0.0 0.0 0.00 0.00 0.00 90 1016.1
20260505111418 12 150 0.0 0.0 0.00 0.00 0.00 90 1016.1
20260505110914 12 150 0.0 0.0 0.00 0.00 0.00 91 1016.0
20260505110359 12 150 0.0 0.0 0.00 0.00 0.00 91 1016.0
20260505110349 11 150 0.0 0.0 0.00 0.00 0.00 91 1015.8
20260505102140 11 150 0.0 0.0 0.00 0.00 0.00 89 1015.5
20260505101639 11 150 0.0 0.0 0.00 0.00 0.00 90 1015.4
20260505101600 11 150 0.0 0.0 0.00 0.00 0.00 89 1015.3
20260505101202 11 150 0.0 0.0 0.00 0.00 0.00 89 1015.4
20260505100056 11 150 0.0 0.0 0.00 0.00 0.00 90 1015.2
20260505095537 11 150 0.0 0.0 0.00 0.00 0.00 89 1015.2
20260505095030 11 150 0.0 0.0 0.00 0.00 0.00 89 1015.1
20260505094528 11 150 0.0 0.0 0.00 0.00 0.00 89 1015.2
20260505094504 11 150 0.0 0.0 0.00 0.00 0.00 89 1015.1
20260505093443 11 150 0.0 0.0 0.00 0.00 0.00 89 1015.1
20260505092934 12 150 0.0 0.0 0.00 0.00 0.00 89 1015.2
20260505092430 12 150 0.0 0.0 0.00 0.00 0.00 89 1015.1
20260505092413 12 150 0.0 0.0 0.00 0.00 0.00 88 1015.2
20260505091400 12 150 0.0 0.0 0.00 0.00 0.00 88 1015.1
20260505090825 12 150 0.0 0.0 0.00 0.00 0.00 87 1015.1
20260505090326 12 150 0.0 0.0 0.00 0.00 0.00 87 1015.1
20260505085825 12 150 0.0 0.0 0.00 0.00 0.00 86 1015.1
20260505085325 12 150 0.0 0.0 0.00 0.00 0.00 86 1015.0
20260505084822 12 150 0.0 0.0 0.00 0.00 0.00 86 1014.9
20260505084321 12 150 0.0 0.0 0.00 0.00 0.00 86 1014.9
20260505083817 12 150 0.0 0.0 0.00 0.00 0.00 85 1014.9
20260505083314 13 150 0.0 0.0 0.00 0.00 0.00 85 1015.0
20260505082729 13 150 0.0 0.0 0.00 0.00 0.00 84 1015.0
20260505082644 13 150 0.0 0.0 0.00 0.00 0.00 84 1014.9
20260505081607 13 150 0.0 0.0 0.00 0.00 0.00 84 1014.8
20260505081030 13 150 0.0 0.0 0.00 0.00 0.00 83 1014.8
20260505081026 13 150 0.0 0.0 0.00 0.00 0.00 83 1014.8
20260505080023 13 150 0.0 0.0 0.00 0.00 0.00 83 1014.7
20260505075522 13 150 0.0 0.0 0.00 0.00 0.00 82 1014.7
20260505075017 13 150 0.0 0.0 0.00 0.00 0.00 82 1014.7
20260505074515 13 150 0.0 0.0 0.00 0.00 0.00 82 1014.7
20260505073959 13 150 0.0 0.0 0.00 0.00 0.00 82 1014.7
20260505073448 13 150 0.0 0.0 0.00 0.00 0.00 82 1014.8
20260505072937 14 150 0.0 0.0 0.00 0.00 0.00 81 1014.8
20260505072424 14 150 0.0 0.0 0.00 0.00 0.00 81 1014.9
20260505071919 14 150 0.0 0.0 0.00 0.00 0.00 80 1014.8
20260505071343 14 150 0.0 0.0 0.00 0.00 0.00 80 1014.7
20260505070839 14 150 0.0 0.0 0.00 0.00 0.00 80 1014.7
20260505070330 14 150 0.0 0.0 0.00 0.00 0.00 80 1014.7
20260505065829 14 150 0.0 0.0 0.00 0.00 0.00 80 1014.7
20260505065325 14 150 0.0 0.0 0.00 0.00 0.00 80 1014.6
20260505064748 14 150 0.0 0.0 0.00 0.00 0.00 80 1014.7
20260505064235 14 150 0.0 0.0 0.00 0.00 0.00 79 1014.7
20260505063729 15 150 0.0 0.0 0.00 0.00 0.00 79 1014.7
20260505063213 15 150 0.0 0.0 0.00 0.00 0.00 79 1014.7
20260505062645 15 150 0.0 0.0 0.00 0.00 0.00 78 1014.6
20260505062144 15 154 0.0 1.6 0.00 0.00 0.00 79 1014.7
20260505061641 15 154 0.0 1.6 0.00 0.00 0.00 78 1014.7
20260505061139 15 154 0.0 0.0 0.00 0.00 0.00 78 1014.7
20260505061105 15 154 0.0 0.0 0.00 0.00 0.00 78 1014.7
20260505060059 15 154 0.0 0.0 0.00 0.00 0.00 78 1014.7
20260505060042 15 154 0.0 0.0 0.00 0.00 0.00 78 1014.8
20260505055037 15 155 0.0 0.0 0.00 0.00 0.00 78 1014.7
20260505054536 15 155 0.0 0.0 0.00 0.00 0.00 77 1014.7
20260505054529 15 155 0.0 0.0 0.00 0.00 0.00 77 1014.9
20260505053530 15 155 0.0 0.0 0.00 0.00 0.00 77 1014.9
20260505053025 15 155 0.0 0.0 0.00 0.00 0.00 76 1015.0
20260505052526 15 156 0.0 0.0 0.00 0.00 0.00 77 1015.0
20260505052026 15 156 0.0 0.0 0.00 0.00 0.00 76 1015.0
20260505051524 16 156 0.0 0.0 0.00 0.00 0.00 76 1015.1
20260505051021 16 156 0.0 0.0 0.00 0.00 0.00 76 1015.1
20260505050521 16 137 0.0 1.6 0.00 0.00 0.00 76 1015.1
20260505050517 16 156 0.0 1.6 0.00 0.00 0.00 76 1015.2
20260505040923 16 162 0.0 1.6 0.00 0.00 0.00 74 1015.1
20260505040419 16 156 0.0 1.6 0.00 0.00 0.00 74 1015.1
20260505035905 16 156 0.0 1.6 0.00 0.00 0.00 74 1015.1
20260505035336 16 156 0.0 1.6 0.00 0.00 0.00 74 1015.1
20260505034829 16 146 0.0 1.6 0.00 0.00 0.00 73 1015.1
20260505034329 17 127 0.0 3.2 0.00 0.00 0.00 73 1015.1
20260505033829 17 142 0.0 3.2 0.00 0.00 0.00 73 1015.1
20260505033329 17 159 0.0 1.6 0.00 0.00 0.00 73 1015.1
20260505032831 17 159 0.0 1.6 0.00 0.00 0.00 72 1015.0
20260505032827 17 159 0.0 1.6 0.00 0.00 0.00 73 1015.1
20260505032431 17 159 0.0 1.6 0.00 0.00 0.00 72 1015.0
20260505031804 17 159 0.0 3.2 0.00 0.00 0.00 72 1015.1
20260505030801 17 146 0.0 3.2 0.00 0.00 0.00 72 1015.1
20260505030301 17 153 0.0 1.6 0.00 0.00 0.00 72 1015.1
20260505025751 17 149 0.0 3.2 0.00 0.00 0.00 71 1015.1
20260505025251 17 146 0.0 3.2 0.00 0.00 0.00 71 1015.0
20260505024749 17 163 0.0 1.6 0.00 0.00 0.00 71 1015.0
20260505024246 18 161 0.0 3.2 0.00 0.00 0.00 71 1015.1
20260505023747 18 164 0.0 3.2 0.00 0.00 0.00 70 1015.0
20260505023247 18 159 0.0 3.2 0.00 0.00 0.00 70 1014.9
20260505022746 18 149 0.0 1.6 0.00 0.00 0.00 69 1014.9
20260505022247 18 169 0.0 3.2 0.00 0.00 0.00 70 1014.8
20260505021741 18 157 0.0 3.2 0.00 0.00 0.00 70 1014.9
20260505021235 18 139 0.0 3.2 0.00 0.00 0.00 70 1014.8
20260505020733 18 146 0.0 4.8 0.00 0.00 0.00 69 1014.9
20260505020235 18 148 0.0 4.8 0.00 0.00 0.00 69 1014.8
20260505020230 18 159 0.0 3.2 0.00 0.00 0.00 69 1014.7
20260505015223 19 145 0.0 3.2 0.00 0.00 0.00 69 1014.7
20260505014722 19 137 1.6 3.2 0.00 0.00 0.00 69 1014.7
20260505014219 19 139 0.0 3.2 0.00 0.00 0.00 68 1014.7
20260505013716 19 179 0.0 3.2 0.00 0.00 0.00 68 1014.7
20260505013214 19 167 0.0 3.2 0.00 0.00 0.00 68 1014.5
20260505012709 19 129 0.0 3.2 0.00 0.00 0.00 67 1014.4
20260505012209 19 188 0.0 3.2 0.00 0.00 0.00 64 1014.3
20260505012205 19 170 0.0 0.0 0.00 0.00 0.00 62 1014.2
20260505011159 19 161 0.0 0.0 0.00 0.00 0.00 60 1014.2
20260505011135 19 154 0.0 0.0 0.00 0.00 0.00 61 1014.1
20260505010133 19 154 0.0 0.0 0.00 0.00 0.00 59 1013.9
20260505005632 19 154 0.0 0.0 0.00 0.00 0.00 59 1013.6
20260505005628 19 154 0.0 0.0 0.00 0.00 0.00 59 1013.7
20260505004522 19 154 0.0 0.0 0.00 0.00 0.00 59 1013.5
20260505004022 20 154 0.0 0.0 0.00 0.00 0.00 58 1013.5
20260505003523 20 154 0.0 0.0 0.00 0.00 0.00 58 1013.4
20260505003023 20 154 0.0 0.0 0.00 0.00 0.00 57 1013.4
20260505002508 20 154 0.0 0.0 0.00 0.00 0.00 57 1013.3
20260505002009 20 154 0.0 0.0 0.00 0.00 0.00 55 1013.4
20260505001503 20 154 0.0 0.0 0.00 0.00 0.00 56 1013.4
20260505000959 20 154 0.0 0.0 0.00 0.00 0.00 55 1013.4
20260505000446 20 154 0.0 0.0 0.00 0.00 0.00 55 1013.3
20260504235929 21 154 0.0 0.0 0.00 0.00 0.00 55 1013.4
20260504235425 21 154 0.0 0.0 0.00 0.00 0.00 54 1013.3
20260504234925 21 154 0.0 0.0 0.00 0.00 0.00 55 1013.4
20260504234425 21 154 0.0 0.0 0.00 0.00 0.00 54 1013.3
20260504233922 21 154 0.0 0.0 0.00 0.00 0.00 54 1013.3
20260504233415 21 154 0.0 0.0 0.00 0.00 0.00 54 1013.2
20260504232845 22 154 0.0 0.0 0.00 0.00 0.00 52 1013.1
20260504232342 22 154 0.0 0.0 0.00 0.00 0.00 52 1013.0
20260504231831 22 200 0.0 0.0 0.00 0.00 0.00 50 1013.0
20260504231332 22 165 0.0 0.0 0.00 0.00 0.00 54 1013.0
20260504230829 22 165 0.0 0.0 0.00 0.00 0.00 51 1013.0
20260504230329 22 163 0.0 0.0 0.00 0.00 0.00 49 1012.9
20260504225827 23 162 0.0 0.0 0.00 0.00 0.00 49 1013.0
20260504225326 23 165 0.0 0.0 0.00 0.00 0.00 49 1013.0
20260504224827 23 248 0.0 0.0 0.00 0.00 0.00 50 1013.0
20260504224328 23 252 0.0 0.0 0.00 0.00 0.00 50 1013.0
20260504223821 23 252 0.0 0.0 0.00 0.00 0.00 48 1013.1
20260504223317 23 252 0.0 0.0 0.00 0.00 0.00 48 1013.1
20260504222758 23 155 0.0 0.0 0.00 0.00 0.00 48 1013.0
20260504222237 23 203 0.0 0.0 0.00 0.00 0.00 48 1013.0
20260504221735 24 110 0.0 6.4 0.00 0.00 0.00 48 1013.0
20260504221731 24 115 0.0 1.6 0.00 0.00 0.00 46 1013.0
20260504221338 24 153 0.0 1.6 0.00 0.00 0.00 44 1013.0
20260504221334 24 111 0.0 6.4 0.00 0.00 0.00 47 1013.0
20260504215721 24 150 0.0 1.6 0.00 0.00 0.00 45 1013.0
20260504215201 24 150 0.0 3.2 0.00 0.00 0.00 43 1013.0
20260504215146 25 135 0.0 3.2 0.00 0.00 0.00 44 1013.1
20260504214141 25 147 0.0 1.6 0.00 0.00 0.00 45 1013.0
20260504213625 25 147 0.0 1.6 0.00 0.00 0.00 43 1013.1
20260504213102 25 219 0.0 3.2 0.00 0.00 0.00 43 1013.1
20260504212544 25 174 0.0 3.2 0.00 0.00 0.00 43 1013.1
20260504212539 25 132 0.0 3.2 0.00 0.00 0.00 42 1013.1
20260504211530 25 264 0.0 3.2 0.00 0.00 0.00 41 1013.1
20260504211035 26 174 1.6 6.4 0.00 0.00 0.00 40 1013.2
20260504211031 26 138 1.6 6.4 0.00 0.00 0.00 39 1013.2
20260504210030 26 140 0.0 3.2 0.00 0.00 0.00 39 1013.2
20260504205528 26 168 0.0 3.2 0.00 0.00 0.00 38 1013.2
20260504205025 27 112 1.6 3.2 0.00 0.00 0.00 39 1013.3
20260504204520 27 147 1.6 6.4 0.00 0.00 0.00 36 1013.2
20260504204021 27 161 1.6 6.4 0.00 0.00 0.00 34 1013.3
20260504203519 27 120 1.6 4.8 0.00 0.00 0.00 35 1013.4
20260504203012 28 153 1.6 4.8 0.00 0.00 0.00 34 1013.4
20260504202506 28 134 1.6 3.2 0.00 0.00 0.00 37 1013.7
20260504201951 28 153 0.0 3.2 0.00 0.00 0.00 33 1013.7
20260504201444 28 127 0.0 3.2 0.00 0.00 0.00 34 1013.8
20260504200931 28 116 1.6 4.8 0.00 0.00 0.00 36 1013.8
20260504200430 28 117 1.6 4.8 0.00 0.00 0.00 36 1013.7